Time,TemperatureF,DewpointF,PressureIn,WindDirection,WindDirectionDegrees,WindSpeedMPH,WindSpeedGustMPH,Humidity,HourlyPrecipIn,Conditions,Clouds,dailyrainin,SoftwareType,DateUTC
2014-01-26 00:03:00,17.5,10.6,30.10,WNW,299,0.0,0.0,74,-99.99,,,-99.99,RaspberryPi,2014-01-26 07:03:00,
2014-01-26 00:09:00,19.1,11.9,30.14,NW,321,0.0,0.0,73,-99.99,,,-99.99,RaspberryPi,2014-01-26 07:09:00,
2014-01-26 00:14:00,17.5,10.6,30.10,NW,304,0.0,0.0,74,-99.99,,,-99.99,RaspberryPi,2014-01-26 07:14:00,
2014-01-26 00:19:00,17.5,10.6,30.10,WNW,299,0.0,0.0,74,-99.99,,,-99.99,RaspberryPi,2014-01-26 07:19:00,
2014-01-26 00:24:00,17.5,10.6,30.14,WNW,299,0.0,0.0,74,-99.99,,,-99.99,RaspberryPi,2014-01-26 07:24:00,
2014-01-26 00:30:00,17.5,10.6,30.17,WNW,282,0.0,0.0,74,-99.99,,,-99.99,RaspberryPi,2014-01-26 07:30:00,
2014-01-26 00:35:00,15.9,9.1,30.17,WNW,295,0.0,0.0,74,-99.99,,,-99.99,RaspberryPi,2014-01-26 07:35:00,
2014-01-26 00:40:00,15.9,9.1,30.14,WNW,293,0.0,0.0,74,-99.99,,,-99.99,RaspberryPi,2014-01-26 07:40:00,
2014-01-26 00:45:00,15.9,9.4,30.14,West,274,0.1,0.0,75,-99.99,,,-99.99,RaspberryPi,2014-01-26 07:45:00,
2014-01-26 00:51:00,19.1,13.1,30.14,West,266,0.0,0.0,77,-99.99,,,-99.99,RaspberryPi,2014-01-26 07:51:00,
2014-01-26 00:56:00,19.1,13.1,30.17,WNW,301,0.2,0.0,77,-99.99,,,-99.99,RaspberryPi,2014-01-26 07:56:00,
2014-01-26 01:01:00,19.1,12.8,30.10,WSW,241,0.0,0.0,76,-99.99,,,-99.99,RaspberryPi,2014-01-26 08:01:00,
2014-01-26 01:06:00,19.1,13.1,30.10,NW,321,0.0,0.0,77,-99.99,,,-99.99,RaspberryPi,2014-01-26 08:06:00,
2014-01-26 01:12:00,19.1,12.8,30.14,NW,320,0.0,0.0,76,-99.99,,,-99.99,RaspberryPi,2014-01-26 08:12:00,
2014-01-26 01:17:00,17.5,11.2,30.10,WSW,254,0.0,0.0,76,-99.99,,,-99.99,RaspberryPi,2014-01-26 08:17:00,
2014-01-26 01:22:00,17.5,11.2,30.10,West,264,0.1,0.0,76,-99.99,,,-99.99,RaspberryPi,2014-01-26 08:22:00,
2014-01-26 01:27:00,17.5,10.9,30.17,NW,318,0.0,0.0,75,-99.99,,,-99.99,RaspberryPi,2014-01-26 08:27:00,
2014-01-26 01:33:00,15.9,9.4,30.10,West,271,0.2,0.0,75,-99.99,,,-99.99,RaspberryPi,2014-01-26 08:33:00,
2014-01-26 01:38:00,17.5,11.2,30.10,West,262,0.0,0.0,76,-99.99,,,-99.99,RaspberryPi,2014-01-26 08:38:00,
2014-01-26 01:43:00,15.9,9.4,30.10,WNW,291,0.1,0.0,75,-99.99,,,-99.99,RaspberryPi,2014-01-26 08:43:00,
2014-01-26 01:48:00,17.5,11.2,30.10,WNW,286,0.3,0.0,76,-99.99,,,-99.99,RaspberryPi,2014-01-26 08:48:00,
2014-01-26 01:54:00,15.9,9.7,30.17,WNW,297,0.1,0.0,76,-99.99,,,-99.99,RaspberryPi,2014-01-26 08:54:00,
2014-01-26 01:59:00,17.5,11.2,30.14,WNW,300,0.0,0.0,76,-99.99,,,-99.99,RaspberryPi,2014-01-26 08:59:00,
2014-01-26 02:04:00,15.9,9.7,30.10,West,265,0.0,0.0,76,-99.99,,,-99.99,RaspberryPi,2014-01-26 09:04:00,
2014-01-26 02:09:00,15.9,9.7,30.14,WSW,257,0.0,0.0,76,-99.99,,,-99.99,RaspberryPi,2014-01-26 09:09:00,
2014-01-26 02:14:00,15.9,9.7,30.10,SW,229,0.0,0.0,76,-99.99,,,-99.99,RaspberryPi,2014-01-26 09:14:00,
2014-01-26 02:20:00,15.9,9.7,30.10,NW,308,0.0,0.0,76,-99.99,,,-99.99,RaspberryPi,2014-01-26 09:20:00,
2014-01-26 02:25:00,17.5,11.2,30.14,WSW,257,0.0,0.0,76,-99.99,,,-99.99,RaspberryPi,2014-01-26 09:25:00,
2014-01-26 02:30:00,15.9,9.9,30.14,WNW,283,0.2,0.0,77,-99.99,,,-99.99,RaspberryPi,2014-01-26 09:30:00,
2014-01-26 02:36:00,17.5,11.5,30.10,West,261,0.1,0.0,77,-99.99,,,-99.99,RaspberryPi,2014-01-26 09:36:00,
2014-01-26 02:41:00,15.9,9.9,30.07,WSW,257,0.2,0.0,77,-99.99,,,-99.99,RaspberryPi,2014-01-26 09:41:00,
2014-01-26 02:46:00,17.5,11.5,30.10,West,259,0.0,0.0,77,-99.99,,,-99.99,RaspberryPi,2014-01-26 09:46:00,
2014-01-26 02:51:00,15.9,9.9,30.10,WNW,295,0.1,0.0,77,-99.99,,,-99.99,RaspberryPi,2014-01-26 09:51:00,
2014-01-26 02:57:00,15.9,9.7,30.10,WNW,291,0.1,0.0,76,-99.99,,,-99.99,RaspberryPi,2014-01-26 09:57:00,
2014-01-26 03:02:00,15.9,9.9,30.10,WSW,246,1.4,0.0,77,-99.99,,,-99.99,RaspberryPi,2014-01-26 10:02:00,
2014-01-26 03:07:00,15.9,9.9,30.10,WSW,252,0.3,0.0,77,-99.99,,,-99.99,RaspberryPi,2014-01-26 10:07:00,
2014-01-26 03:12:00,15.9,9.9,30.10,SW,221,0.2,0.0,77,-99.99,,,-99.99,RaspberryPi,2014-01-26 10:12:00,
2014-01-26 03:18:00,15.9,9.9,30.10,SW,225,0.2,0.0,77,-99.99,,,-99.99,RaspberryPi,2014-01-26 10:18:00,
2014-01-26 03:23:00,15.9,9.9,30.10,NW,317,0.1,0.0,77,-99.99,,,-99.99,RaspberryPi,2014-01-26 10:23:00,
2014-01-26 03:28:00,17.5,11.8,30.10,West,274,0.1,0.0,78,-99.99,,,-99.99,RaspberryPi,2014-01-26 10:28:00,
2014-01-26 03:33:00,15.9,9.9,30.10,WSW,251,0.0,0.0,77,-99.99,,,-99.99,RaspberryPi,2014-01-26 10:33:00,
2014-01-26 03:39:00,15.9,10.2,30.14,SW,236,1.1,2.7,78,-99.99,,,-99.99,RaspberryPi,2014-01-26 10:39:00,
2014-01-26 03:44:00,17.5,11.8,30.14,West,272,0.1,0.0,78,-99.99,,,-99.99,RaspberryPi,2014-01-26 10:44:00,
2014-01-26 03:49:00,15.9,10.5,30.10,WNW,286,0.0,0.0,79,-99.99,,,-99.99,RaspberryPi,2014-01-26 10:49:00,
2014-01-26 03:54:00,15.9,10.2,30.10,WNW,299,0.2,0.0,78,-99.99,,,-99.99,RaspberryPi,2014-01-26 10:54:00,
2014-01-26 04:00:00,15.9,10.2,30.10,WSW,247,0.0,0.0,78,-99.99,,,-99.99,RaspberryPi,2014-01-26 11:00:00,
2014-01-26 04:05:00,15.9,10.2,30.10,SW,234,0.2,0.0,78,-99.99,,,-99.99,RaspberryPi,2014-01-26 11:05:00,
2014-01-26 04:10:00,15.9,10.2,30.10,SW,226,0.0,0.0,78,-99.99,,,-99.99,RaspberryPi,2014-01-26 11:10:00,
2014-01-26 04:16:00,15.9,10.2,30.07,SW,233,0.1,0.0,78,-99.99,,,-99.99,RaspberryPi,2014-01-26 11:16:00,
2014-01-26 04:21:00,15.9,10.2,30.07,SW,214,0.0,0.0,78,-99.99,,,-99.99,RaspberryPi,2014-01-26 11:21:00,
2014-01-26 04:26:00,15.9,10.5,30.07,WSW,239,0.2,0.0,79,-99.99,,,-99.99,RaspberryPi,2014-01-26 11:26:00,
2014-01-26 04:31:00,15.9,10.5,30.10,WNW,294,0.2,0.0,79,-99.99,,,-99.99,RaspberryPi,2014-01-26 11:31:00,
2014-01-26 04:37:00,15.9,10.5,30.10,SW,229,0.0,0.0,79,-99.99,,,-99.99,RaspberryPi,2014-01-26 11:37:00,
2014-01-26 04:42:00,15.9,10.5,30.10,West,261,0.3,0.0,79,-99.99,,,-99.99,RaspberryPi,2014-01-26 11:42:00,
2014-01-26 04:47:00,15.9,10.5,30.10,West,260,0.2,0.0,79,-99.99,,,-99.99,RaspberryPi,2014-01-26 11:47:00,
2014-01-26 04:52:00,15.9,10.5,30.10,West,281,0.2,0.0,79,-99.99,,,-99.99,RaspberryPi,2014-01-26 11:52:00,
2014-01-26 04:58:00,15.9,10.5,30.10,WNW,283,0.1,0.0,79,-99.99,,,-99.99,RaspberryPi,2014-01-26 11:58:00,
2014-01-26 05:03:00,15.9,10.8,30.07,West,259,0.1,0.0,80,-99.99,,,-99.99,RaspberryPi,2014-01-26 12:03:00,
2014-01-26 05:08:00,15.9,10.5,30.07,SW,235,0.0,0.0,79,-99.99,,,-99.99,RaspberryPi,2014-01-26 12:08:00,
2014-01-26 05:13:00,15.9,10.8,30.10,SW,236,0.0,0.0,80,-99.99,,,-99.99,RaspberryPi,2014-01-26 12:13:00,
2014-01-26 05:19:00,15.9,10.8,30.07,West,263,1.6,0.0,80,-99.99,,,-99.99,RaspberryPi,2014-01-26 12:19:00,
2014-01-26 05:34:00,15.9,10.8,30.14,West,261,11.4,38.8,80,-99.99,,,-99.99,RaspberryPi,2014-01-26 12:34:00,
2014-01-26 05:40:00,15.9,10.8,30.10,West,268,0.3,0.0,80,-99.99,,,-99.99,RaspberryPi,2014-01-26 12:40:00,
2014-01-26 05:45:00,15.9,10.8,30.10,WSW,258,0.1,0.0,80,-99.99,,,-99.99,RaspberryPi,2014-01-26 12:45:00,
2014-01-26 05:50:00,14.3,9.2,30.07,SW,236,0.0,0.0,80,-99.99,,,-99.99,RaspberryPi,2014-01-26 12:50:00,
2014-01-26 05:55:00,14.3,9.2,30.07,SW,235,0.1,0.0,80,-99.99,,,-99.99,RaspberryPi,2014-01-26 12:55:00,
2014-01-26 06:01:00,14.3,9.2,30.07,WNW,282,3.3,10.6,80,-99.99,,,-99.99,RaspberryPi,2014-01-26 13:01:00,
2014-01-26 06:06:00,15.9,10.8,30.10,SW,235,22.9,46.8,80,-99.99,,,-99.99,RaspberryPi,2014-01-26 13:06:00,
2014-01-26 06:11:00,14.3,9.5,30.10,SW,230,44.8,55.1,81,-99.99,,,-99.99,RaspberryPi,2014-01-26 13:11:00,
2014-01-26 06:16:00,14.3,9.5,30.14,SW,228,13.0,31.5,81,-99.99,,,-99.99,RaspberryPi,2014-01-26 13:16:00,
2014-01-26 06:22:00,14.3,9.5,30.04,SSW,210,14.6,0.0,81,-99.99,,,-99.99,RaspberryPi,2014-01-26 13:22:00,
2014-01-26 06:27:00,14.3,9.8,30.14,SW,236,13.0,28.9,82,-99.99,,,-99.99,RaspberryPi,2014-01-26 13:27:00,
2014-01-26 06:32:00,15.9,11.4,30.10,WSW,251,1.8,7.0,82,-99.99,,,-99.99,RaspberryPi,2014-01-26 13:32:00,
2014-01-26 06:37:00,14.3,10.1,30.10,SSW,207,23.1,58.0,83,-99.99,,,-99.99,RaspberryPi,2014-01-26 13:37:00,
2014-01-26 06:43:00,14.3,10.1,30.14,West,274,25.8,60.4,83,-99.99,,,-99.99,RaspberryPi,2014-01-26 13:43:00,
2014-01-26 06:53:00,15.9,11.9,30.07,WSW,258,11.5,21.9,84,-99.99,,,-99.99,RaspberryPi,2014-01-26 13:53:00,
2014-01-26 06:58:00,14.3,10.3,30.10,WSW,254,20.1,28.9,84,-99.99,,,-99.99,RaspberryPi,2014-01-26 13:58:00,
2014-01-26 07:14:00,15.9,12.4,30.10,West,266,52.2,69.3,86,-99.99,,,-99.99,RaspberryPi,2014-01-26 14:14:00,
2014-01-26 07:20:00,15.9,12.4,30.10,WSW,237,31.8,58.7,86,-99.99,,,-99.99,RaspberryPi,2014-01-26 14:20:00,
2014-01-26 07:25:00,15.9,12.4,30.10,West,267,19.4,27.5,86,-99.99,,,-99.99,RaspberryPi,2014-01-26 14:25:00,
2014-01-26 07:30:00,15.9,12.4,30.14,SSW,212,13.5,25.5,86,-99.99,,,-99.99,RaspberryPi,2014-01-26 14:30:00,
2014-01-26 07:35:00,15.9,12.7,30.04,West,267,30.4,65.3,87,-99.99,,,-99.99,RaspberryPi,2014-01-26 14:35:00,
2014-01-26 07:41:00,15.9,12.7,30.07,SW,231,0.0,0.0,87,-99.99,,,-99.99,RaspberryPi,2014-01-26 14:41:00,
2014-01-26 07:46:00,12.7,9.3,30.10,SW,217,5.5,13.6,86,-99.99,,,-99.99,RaspberryPi,2014-01-26 14:46:00,
2014-01-26 07:56:00,15.9,12.7,30.14,NW,307,1.0,0.0,87,-99.99,,,-99.99,RaspberryPi,2014-01-26 14:56:00,
2014-01-26 08:02:00,15.9,13.0,30.14,WSW,254,1.3,0.0,88,-99.99,,,-99.99,RaspberryPi,2014-01-26 15:02:00,
2014-01-26 08:07:00,15.9,13.0,30.10,NW,307,1.3,3.0,88,-99.99,,,-99.99,RaspberryPi,2014-01-26 15:07:00,
2014-01-26 08:12:00,15.9,13.2,30.14,NW,308,9.5,15.6,89,-99.99,,,-99.99,RaspberryPi,2014-01-26 15:12:00,
2014-01-26 08:17:00,15.9,13.2,30.10,WNW,298,32.7,67.3,89,-99.99,,,-99.99,RaspberryPi,2014-01-26 15:17:00,
2014-01-26 08:23:00,14.3,11.6,30.17,West,281,22.8,59.0,89,-99.99,,,-99.99,RaspberryPi,2014-01-26 15:23:00,
2014-01-26 08:28:00,14.3,11.6,30.14,WNW,296,2.7,0.0,89,-99.99,,,-99.99,RaspberryPi,2014-01-26 15:28:00,
2014-01-26 08:33:00,15.9,13.2,30.10,West,281,4.2,0.0,89,-99.99,,,-99.99,RaspberryPi,2014-01-26 15:33:00,
2014-01-26 08:38:00,15.9,13.2,30.10,NW,313,0.0,0.0,89,-99.99,,,-99.99,RaspberryPi,2014-01-26 15:38:00,
2014-01-26 08:44:00,15.9,13.5,30.07,West,281,0.0,0.0,90,-99.99,,,-99.99,RaspberryPi,2014-01-26 15:44:00,
2014-01-26 08:49:00,17.5,15.3,30.14,NNW,332,0.0,0.0,91,-99.99,,,-99.99,RaspberryPi,2014-01-26 15:49:00,
2014-01-26 08:54:00,19.1,16.9,30.10,West,272,0.0,0.0,91,-99.99,,,-99.99,RaspberryPi,2014-01-26 15:54:00,
2014-01-26 08:59:00,19.1,16.9,30.14,WNW,300,0.0,0.0,91,-99.99,,,-99.99,RaspberryPi,2014-01-26 15:59:00,
2014-01-26 09:05:00,19.1,16.9,30.17,WNW,298,0.0,0.0,91,-99.99,,,-99.99,RaspberryPi,2014-01-26 16:05:00,
2014-01-26 09:10:00,19.1,16.9,30.17,WNW,282,0.0,0.0,91,-99.99,,,-99.99,RaspberryPi,2014-01-26 16:10:00,
2014-01-26 09:15:00,19.1,16.9,30.10,WNW,300,0.0,0.0,91,-99.99,,,-99.99,RaspberryPi,2014-01-26 16:15:00,
2014-01-26 09:21:00,19.1,17.2,30.10,West,272,0.0,0.0,92,-99.99,,,-99.99,RaspberryPi,2014-01-26 16:21:00,
2014-01-26 09:26:00,20.7,19.0,30.14,WNW,300,0.0,0.0,93,-99.99,,,-99.99,RaspberryPi,2014-01-26 16:26:00,
2014-01-26 09:31:00,20.7,19.0,30.17,NW,312,0.0,0.0,93,-99.99,,,-99.99,RaspberryPi,2014-01-26 16:31:00,
2014-01-26 09:36:00,20.7,18.7,30.10,NW,307,0.0,0.0,92,-99.99,,,-99.99,RaspberryPi,2014-01-26 16:36:00,
2014-01-26 09:42:00,22.3,20.6,30.17,NW,306,0.0,0.0,93,-99.99,,,-99.99,RaspberryPi,2014-01-26 16:42:00,
2014-01-26 09:47:00,22.3,20.3,30.14,WSW,255,0.0,0.0,92,-99.99,,,-99.99,RaspberryPi,2014-01-26 16:47:00,
2014-01-26 09:52:00,22.3,20.3,30.14,WNW,284,0.0,0.0,92,-99.99,,,-99.99,RaspberryPi,2014-01-26 16:52:00,
2014-01-26 09:58:00,22.3,20.1,30.17,WNW,287,0.0,0.0,91,-99.99,,,-99.99,RaspberryPi,2014-01-26 16:58:00,
2014-01-26 10:03:00,22.3,20.1,30.14,NNW,329,0.0,0.0,91,-99.99,,,-99.99,RaspberryPi,2014-01-26 17:03:00,
2014-01-26 10:08:00,23.9,21.7,30.10,NW,311,0.0,0.0,91,-99.99,,,-99.99,RaspberryPi,2014-01-26 17:08:00,
2014-01-26 10:14:00,23.9,21.1,30.17,WNW,292,0.0,0.0,89,-99.99,,,-99.99,RaspberryPi,2014-01-26 17:14:00,
2014-01-26 10:19:00,23.9,21.1,30.17,West,267,0.0,0.0,89,-99.99,,,-99.99,RaspberryPi,2014-01-26 17:19:00,
2014-01-26 10:24:00,23.9,20.9,30.14,NW,326,0.0,0.0,88,-99.99,,,-99.99,RaspberryPi,2014-01-26 17:24:00,
2014-01-26 10:30:00,23.9,20.9,30.14,NW,319,0.0,0.0,88,-99.99,,,-99.99,RaspberryPi,2014-01-26 17:30:00,
2014-01-26 10:35:00,23.9,20.6,30.14,West,281,0.0,0.0,87,-99.99,,,-99.99,RaspberryPi,2014-01-26 17:35:00,
2014-01-26 10:40:00,25.5,22.2,30.20,NNW,329,0.0,0.0,87,-99.99,,,-99.99,RaspberryPi,2014-01-26 17:40:00,
2014-01-26 10:45:00,27.1,23.8,30.14,NW,321,0.0,0.0,87,-99.99,,,-99.99,RaspberryPi,2014-01-26 17:45:00,
2014-01-26 10:51:00,27.1,23.2,30.10,NNW,329,0.0,0.0,85,-99.99,,,-99.99,RaspberryPi,2014-01-26 17:51:00,
2014-01-26 10:56:00,27.1,22.9,30.14,NNW,332,0.0,0.0,84,-99.99,,,-99.99,RaspberryPi,2014-01-26 17:56:00,
2014-01-26 11:01:00,27.1,22.9,30.14,NW,322,0.0,0.0,84,-99.99,,,-99.99,RaspberryPi,2014-01-26 18:01:00,
2014-01-26 11:07:00,-999.9,99.9,30.20,NW,310,0.0,0.0,83,-99.99,,,-99.99,RaspberryPi,2014-01-26 18:07:00,
2014-01-26 11:12:00,27.1,22.7,30.14,NNW,333,0.0,0.0,83,-99.99,,,-99.99,RaspberryPi,2014-01-26 18:12:00,
2014-01-26 11:17:00,27.1,22.4,30.20,West,274,0.0,0.0,82,-99.99,,,-99.99,RaspberryPi,2014-01-26 18:17:00,
2014-01-26 11:22:00,27.1,22.4,30.14,WNW,284,0.0,0.0,82,-99.99,,,-99.99,RaspberryPi,2014-01-26 18:22:00,
2014-01-26 11:28:00,27.1,22.1,30.14,West,279,0.0,0.0,81,-99.99,,,-99.99,RaspberryPi,2014-01-26 18:28:00,
2014-01-26 11:33:00,27.1,21.8,30.14,WSW,258,0.0,0.0,80,-99.99,,,-99.99,RaspberryPi,2014-01-26 18:33:00,
2014-01-26 11:38:00,27.1,22.1,30.14,WSW,249,0.0,0.0,81,-99.99,,,-99.99,RaspberryPi,2014-01-26 18:38:00,
2014-01-26 11:44:00,27.1,22.1,30.14,NW,317,0.0,0.0,81,-99.99,,,-99.99,RaspberryPi,2014-01-26 18:44:00,
2014-01-26 11:49:00,27.1,21.8,30.14,NW,314,0.0,0.0,80,-99.99,,,-99.99,RaspberryPi,2014-01-26 18:49:00,
2014-01-26 11:54:00,28.7,23.3,30.17,NW,312,0.0,0.0,80,-99.99,,,-99.99,RaspberryPi,2014-01-26 18:54:00,
2014-01-26 12:00:00,28.7,23.3,30.17,WNW,287,0.0,0.0,80,-99.99,,,-99.99,RaspberryPi,2014-01-26 19:00:00,
2014-01-26 12:05:00,28.7,23.3,30.17,WNW,282,0.0,0.0,80,-99.99,,,-99.99,RaspberryPi,2014-01-26 19:05:00,
2014-01-26 12:10:00,28.6,23.2,30.14,NNW,338,0.0,0.0,80,-99.99,,,-99.99,RaspberryPi,2014-01-26 19:10:00,
2014-01-26 12:16:00,28.6,23.2,30.17,WNW,285,0.7,0.0,80,-99.99,,,-99.99,RaspberryPi,2014-01-26 19:16:00,
2014-01-26 12:21:00,28.6,22.6,30.14,NW,308,1.3,0.0,78,-99.99,,,-99.99,RaspberryPi,2014-01-26 19:21:00,
2014-01-26 12:26:00,28.6,22.6,30.14,NW,307,1.4,3.3,78,-99.99,,,-99.99,RaspberryPi,2014-01-26 19:26:00,
2014-01-26 12:31:00,28.6,22.3,30.20,West,278,1.1,0.0,77,-99.99,,,-99.99,RaspberryPi,2014-01-26 19:31:00,
2014-01-26 12:37:00,28.6,22.0,30.10,NW,314,0.7,0.0,76,-99.99,,,-99.99,RaspberryPi,2014-01-26 19:37:00,
2014-01-26 12:42:00,28.6,22.0,30.14,NW,311,1.2,0.0,76,-99.99,,,-99.99,RaspberryPi,2014-01-26 19:42:00,
2014-01-26 12:47:00,28.6,21.7,30.17,NW,312,0.1,0.0,75,-99.99,,,-99.99,RaspberryPi,2014-01-26 19:47:00,
2014-01-26 12:52:00,28.6,21.7,30.10,NW,313,0.2,0.0,75,-99.99,,,-99.99,RaspberryPi,2014-01-26 19:52:00,
2014-01-26 12:58:00,28.6,21.3,30.17,WSW,256,0.2,0.0,74,-99.99,,,-99.99,RaspberryPi,2014-01-26 19:58:00,
2014-01-26 13:03:00,28.6,21.0,30.14,NNW,329,0.0,0.0,73,-99.99,,,-99.99,RaspberryPi,2014-01-26 20:03:00,
2014-01-26 13:08:00,28.6,21.0,30.14,NW,312,0.0,0.0,73,-99.99,,,-99.99,RaspberryPi,2014-01-26 20:08:00,
2014-01-26 13:14:00,28.6,21.0,30.14,NNW,338,0.1,0.0,73,-99.99,,,-99.99,RaspberryPi,2014-01-26 20:14:00,
2014-01-26 13:19:00,28.6,21.0,30.17,NW,324,0.0,0.0,73,-99.99,,,-99.99,RaspberryPi,2014-01-26 20:19:00,
2014-01-26 13:24:00,28.6,20.7,30.10,NW,319,0.1,0.0,72,-99.99,,,-99.99,RaspberryPi,2014-01-26 20:24:00,
2014-01-26 13:29:00,28.6,20.7,30.14,WNW,283,0.1,0.0,72,-99.99,,,-99.99,RaspberryPi,2014-01-26 20:29:00,
2014-01-26 13:35:00,28.6,20.4,30.10,WSW,252,0.0,0.0,71,-99.99,,,-99.99,RaspberryPi,2014-01-26 20:35:00,
2014-01-26 13:40:00,28.6,20.4,30.14,West,280,0.1,0.0,71,-99.99,,,-99.99,RaspberryPi,2014-01-26 20:40:00,
2014-01-26 13:45:00,28.6,20.0,30.10,NW,312,0.3,0.0,70,-99.99,,,-99.99,RaspberryPi,2014-01-26 20:45:00,
2014-01-26 13:51:00,28.6,20.0,30.10,West,273,0.4,0.0,70,-99.99,,,-99.99,RaspberryPi,2014-01-26 20:51:00,
2014-01-26 13:56:00,28.6,20.0,30.10,WNW,284,1.2,0.0,70,-99.99,,,-99.99,RaspberryPi,2014-01-26 20:56:00,
2014-01-26 14:01:00,28.6,20.0,30.10,NW,310,0.5,0.0,70,-99.99,,,-99.99,RaspberryPi,2014-01-26 21:01:00,
2014-01-26 14:06:00,28.6,20.0,30.10,NNW,336,0.5,0.0,70,-99.99,,,-99.99,RaspberryPi,2014-01-26 21:06:00,
2014-01-26 14:12:00,28.6,19.7,30.10,NNW,342,0.3,0.0,69,-99.99,,,-99.99,RaspberryPi,2014-01-26 21:12:00,
2014-01-26 14:17:00,28.6,19.7,30.10,NW,317,0.5,0.0,69,-99.99,,,-99.99,RaspberryPi,2014-01-26 21:17:00,
2014-01-26 14:22:00,28.6,19.4,30.14,WSW,250,0.9,0.0,68,-99.99,,,-99.99,RaspberryPi,2014-01-26 21:22:00,
2014-01-26 14:27:00,28.6,19.4,30.07,WNW,283,0.2,0.0,68,-99.99,,,-99.99,RaspberryPi,2014-01-26 21:27:00,
2014-01-26 14:33:00,30.2,20.9,30.10,West,263,0.6,0.0,68,-99.99,,,-99.99,RaspberryPi,2014-01-26 21:33:00,
2014-01-26 14:38:00,28.6,19.0,30.10,NNW,341,1.5,0.0,67,-99.99,,,-99.99,RaspberryPi,2014-01-26 21:38:00,
2014-01-26 14:43:00,30.2,20.2,30.10,NW,316,0.2,0.0,66,-99.99,,,-99.99,RaspberryPi,2014-01-26 21:43:00,
2014-01-26 14:49:00,28.6,18.3,30.07,NW,312,1.5,0.0,65,-99.99,,,-99.99,RaspberryPi,2014-01-26 21:49:00,
2014-01-26 14:54:00,28.6,18.7,30.14,North,9,1.2,0.0,66,-99.99,,,-99.99,RaspberryPi,2014-01-26 21:54:00,
2014-01-26 14:59:00,28.6,19.0,30.10,NNW,340,0.8,0.0,67,-99.99,,,-99.99,RaspberryPi,2014-01-26 21:59:00,
2014-01-26 15:04:00,28.6,19.0,30.10,NNW,342,0.8,0.0,67,-99.99,,,-99.99,RaspberryPi,2014-01-26 22:04:00,
2014-01-26 15:10:00,30.2,20.9,30.07,NNW,342,1.1,0.0,68,-99.99,,,-99.99,RaspberryPi,2014-01-26 22:10:00,
2014-01-26 15:15:00,30.2,20.9,30.14,NW,308,1.5,3.0,68,-99.99,,,-99.99,RaspberryPi,2014-01-26 22:15:00,
2014-01-26 15:20:00,30.2,20.5,30.10,NE,36,1.4,0.0,67,-99.99,,,-99.99,RaspberryPi,2014-01-26 22:20:00,
2014-01-26 15:25:00,28.6,18.7,30.07,NE,44,1.7,0.0,66,-99.99,,,-99.99,RaspberryPi,2014-01-26 22:25:00,
2014-01-26 15:31:00,30.2,19.8,30.10,NNE,14,1.5,0.0,65,-99.99,,,-99.99,RaspberryPi,2014-01-26 22:31:00,
2014-01-26 15:36:00,30.2,19.8,30.10,NNW,333,1.2,0.0,65,-99.99,,,-99.99,RaspberryPi,2014-01-26 22:36:00,
2014-01-26 15:41:00,30.2,18.7,30.10,North,11,0.7,0.0,62,-99.99,,,-99.99,RaspberryPi,2014-01-26 22:41:00,
2014-01-26 15:47:00,30.2,18.7,30.10,NNW,341,1.1,0.0,62,-99.99,,,-99.99,RaspberryPi,2014-01-26 22:47:00,
2014-01-26 15:52:00,28.6,16.4,30.14,NE,37,1.5,0.0,60,-99.99,,,-99.99,RaspberryPi,2014-01-26 22:52:00,
2014-01-26 15:57:00,28.6,16.4,30.14,North,358,1.3,0.0,60,-99.99,,,-99.99,RaspberryPi,2014-01-26 22:57:00,
2014-01-26 16:03:00,28.6,16.4,30.10,NNW,341,1.7,0.0,60,-99.99,,,-99.99,RaspberryPi,2014-01-26 23:03:00,
2014-01-26 16:08:00,28.6,16.4,30.17,North,11,0.7,0.0,60,-99.99,,,-99.99,RaspberryPi,2014-01-26 23:08:00,
2014-01-26 16:13:00,28.6,16.1,30.10,NNE,27,2.6,0.0,59,-99.99,,,-99.99,RaspberryPi,2014-01-26 23:13:00,
2014-01-26 16:19:00,28.6,16.1,30.10,NE,53,2.4,0.0,59,-99.99,,,-99.99,RaspberryPi,2014-01-26 23:19:00,
2014-01-26 16:24:00,28.6,16.4,30.07,NE,49,2.9,0.0,60,-99.99,,,-99.99,RaspberryPi,2014-01-26 23:24:00,
2014-01-26 16:29:00,28.6,16.4,30.14,North,354,3.3,0.0,60,-99.99,,,-99.99,RaspberryPi,2014-01-26 23:29:00,
2014-01-26 16:34:00,28.6,16.4,30.10,NW,316,2.6,0.0,60,-99.99,,,-99.99,RaspberryPi,2014-01-26 23:34:00,
2014-01-26 16:40:00,28.6,16.4,30.14,North,354,2.1,0.0,60,-99.99,,,-99.99,RaspberryPi,2014-01-26 23:40:00,
2014-01-26 16:45:00,28.6,16.4,30.10,NNE,23,1.3,0.0,60,-99.99,,,-99.99,RaspberryPi,2014-01-26 23:45:00,
2014-01-26 16:50:00,28.6,16.4,30.14,North,353,1.0,0.0,60,-99.99,,,-99.99,RaspberryPi,2014-01-26 23:50:00,
2014-01-26 16:56:00,28.6,16.4,30.14,NNW,348,1.2,0.0,60,-99.99,,,-99.99,RaspberryPi,2014-01-26 23:56:00,
2014-01-26 17:01:00,28.6,16.4,30.10,West,277,0.9,0.0,60,-99.99,,,-99.99,RaspberryPi,2014-01-27 00:01:00,
2014-01-26 17:06:00,28.6,16.4,30.10,WNW,292,0.8,0.0,60,-99.99,,,-99.99,RaspberryPi,2014-01-27 00:06:00,
2014-01-26 17:11:00,28.6,16.8,30.14,North,352,0.9,0.0,61,-99.99,,,-99.99,RaspberryPi,2014-01-27 00:11:00,
2014-01-26 17:17:00,28.6,16.8,30.14,WNW,284,1.0,0.0,61,-99.99,,,-99.99,RaspberryPi,2014-01-27 00:17:00,
2014-01-26 17:22:00,28.6,16.8,30.10,NNE,24,0.4,0.0,61,-99.99,,,-99.99,RaspberryPi,2014-01-27 00:22:00,
2014-01-26 17:27:00,28.6,17.2,30.10,North,356,0.0,0.0,62,-99.99,,,-99.99,RaspberryPi,2014-01-27 00:27:00,
2014-01-26 17:32:00,28.6,17.2,30.14,NW,322,0.0,0.0,62,-99.99,,,-99.99,RaspberryPi,2014-01-27 00:32:00,
2014-01-26 17:38:00,28.7,17.7,30.07,North,354,0.0,0.0,63,-99.99,,,-99.99,RaspberryPi,2014-01-27 00:38:00,
2014-01-26 17:43:00,28.7,17.7,30.10,NW,315,0.0,0.0,63,-99.99,,,-99.99,RaspberryPi,2014-01-27 00:43:00,
2014-01-26 17:48:00,28.7,18.1,30.14,WNW,302,0.0,0.0,64,-99.99,,,-99.99,RaspberryPi,2014-01-27 00:48:00,
2014-01-26 17:54:00,28.7,18.1,30.10,WNW,289,1.2,0.0,64,-99.99,,,-99.99,RaspberryPi,2014-01-27 00:54:00,
2014-01-26 17:59:00,28.7,18.5,30.07,NW,309,0.1,0.0,65,-99.99,,,-99.99,RaspberryPi,2014-01-27 00:59:00,
2014-01-26 18:04:00,28.7,18.5,30.10,NNW,347,0.1,0.0,65,-99.99,,,-99.99,RaspberryPi,2014-01-27 01:04:00,
2014-01-26 18:09:00,28.6,18.3,30.10,WNW,298,0.4,0.0,65,-99.99,,,-99.99,RaspberryPi,2014-01-27 01:09:00,
2014-01-26 18:15:00,28.6,18.3,30.14,NW,326,0.8,0.0,65,-99.99,,,-99.99,RaspberryPi,2014-01-27 01:15:00,
2014-01-26 18:20:00,28.6,17.6,30.10,North,11,0.7,0.0,63,-99.99,,,-99.99,RaspberryPi,2014-01-27 01:20:00,
2014-01-26 18:25:00,28.6,16.8,30.10,NNE,20,2.5,5.3,61,-99.99,,,-99.99,RaspberryPi,2014-01-27 01:25:00,
2014-01-26 18:31:00,28.6,16.4,30.14,NNE,26,1.8,0.0,60,-99.99,,,-99.99,RaspberryPi,2014-01-27 01:31:00,
2014-01-26 18:36:00,28.6,16.1,30.14,NW,326,1.3,0.0,59,-99.99,,,-99.99,RaspberryPi,2014-01-27 01:36:00,
2014-01-26 18:41:00,28.6,16.1,30.14,NNE,18,2.1,0.0,59,-99.99,,,-99.99,RaspberryPi,2014-01-27 01:41:00,
2014-01-26 18:47:00,28.6,15.7,30.14,NW,305,0.9,0.0,58,-99.99,,,-99.99,RaspberryPi,2014-01-27 01:47:00,
2014-01-26 18:52:00,28.6,16.1,30.14,NW,312,1.9,0.0,59,-99.99,,,-99.99,RaspberryPi,2014-01-27 01:52:00,
2014-01-26 18:57:00,28.6,15.7,30.14,North,354,2.3,0.0,58,-99.99,,,-99.99,RaspberryPi,2014-01-27 01:57:00,
2014-01-26 19:02:00,28.6,15.3,30.14,North,355,1.6,0.0,57,-99.99,,,-99.99,RaspberryPi,2014-01-27 02:02:00,
2014-01-26 19:08:00,28.6,15.3,30.17,North,9,2.1,0.0,57,-99.99,,,-99.99,RaspberryPi,2014-01-27 02:08:00,
2014-01-26 19:13:00,28.6,14.9,30.10,NNW,337,3.0,4.6,56,-99.99,,,-99.99,RaspberryPi,2014-01-27 02:13:00,
2014-01-26 19:18:00,28.6,14.4,30.10,NW,312,2.8,0.0,55,-99.99,,,-99.99,RaspberryPi,2014-01-27 02:18:00,
2014-01-26 19:23:00,28.6,14.0,30.14,WNW,290,3.9,5.6,54,-99.99,,,-99.99,RaspberryPi,2014-01-27 02:23:00,
2014-01-26 19:29:00,28.6,13.2,30.14,North,356,5.1,6.6,52,-99.99,,,-99.99,RaspberryPi,2014-01-27 02:29:00,
2014-01-26 19:34:00,28.6,12.7,30.10,North,6,3.6,6.0,51,-99.99,,,-99.99,RaspberryPi,2014-01-27 02:34:00,
2014-01-26 19:39:00,28.6,12.7,30.10,NW,319,3.9,6.3,51,-99.99,,,-99.99,RaspberryPi,2014-01-27 02:39:00,
2014-01-26 19:45:00,28.6,12.3,30.14,North,352,2.9,0.0,50,-99.99,,,-99.99,RaspberryPi,2014-01-27 02:45:00,
2014-01-26 19:50:00,28.6,12.3,30.07,NW,325,3.7,0.0,50,-99.99,,,-99.99,RaspberryPi,2014-01-27 02:50:00,
2014-01-26 19:55:00,28.6,12.3,30.17,NW,309,3.2,4.6,50,-99.99,,,-99.99,RaspberryPi,2014-01-27 02:55:00,
2014-01-26 20:01:00,28.7,12.4,30.14,NW,318,3.6,0.0,50,-99.99,,,-99.99,RaspberryPi,2014-01-27 03:01:00,
2014-01-26 20:06:00,28.7,12.4,30.10,NNW,333,3.5,5.0,50,-99.99,,,-99.99,RaspberryPi,2014-01-27 03:06:00,
2014-01-26 20:11:00,28.7,12.4,30.10,NNW,345,2.6,4.0,50,-99.99,,,-99.99,RaspberryPi,2014-01-27 03:11:00,
2014-01-26 20:17:00,28.7,12.4,30.10,NW,317,3.2,0.0,50,-99.99,,,-99.99,RaspberryPi,2014-01-27 03:17:00,
2014-01-26 20:22:00,28.7,12.0,30.10,NNE,14,2.9,4.6,49,-99.99,,,-99.99,RaspberryPi,2014-01-27 03:22:00,
2014-01-26 20:27:00,28.7,12.0,30.14,NW,324,3.6,0.0,49,-99.99,,,-99.99,RaspberryPi,2014-01-27 03:27:00,
2014-01-26 20:32:00,28.7,12.0,30.07,North,9,4.4,6.6,49,-99.99,,,-99.99,RaspberryPi,2014-01-27 03:32:00,
2014-01-26 20:38:00,28.7,12.0,30.17,North,357,3.5,0.0,49,-99.99,,,-99.99,RaspberryPi,2014-01-27 03:38:00,
2014-01-26 20:43:00,28.7,12.0,30.14,North,352,2.5,0.0,49,-99.99,,,-99.99,RaspberryPi,2014-01-27 03:43:00,
2014-01-26 20:48:00,28.7,12.0,30.14,West,281,3.6,0.0,49,-99.99,,,-99.99,RaspberryPi,2014-01-27 03:48:00,
2014-01-26 20:54:00,28.7,12.0,30.17,NW,308,3.0,0.0,49,-99.99,,,-99.99,RaspberryPi,2014-01-27 03:54:00,
2014-01-26 20:59:00,28.7,12.0,30.14,NNW,343,4.4,6.0,49,-99.99,,,-99.99,RaspberryPi,2014-01-27 03:59:00,
2014-01-26 21:04:00,28.7,12.0,30.17,NNW,337,4.3,6.0,49,-99.99,,,-99.99,RaspberryPi,2014-01-27 04:04:00,
2014-01-26 21:09:00,28.7,12.0,30.14,West,265,4.1,6.0,49,-99.99,,,-99.99,RaspberryPi,2014-01-27 04:09:00,
2014-01-26 21:15:00,28.7,12.0,30.10,NNW,346,5.0,8.3,49,-99.99,,,-99.99,RaspberryPi,2014-01-27 04:15:00,
2014-01-26 21:20:00,27.1,10.5,30.10,WNW,283,3.8,0.0,49,-99.99,,,-99.99,RaspberryPi,2014-01-27 04:20:00,
2014-01-26 21:25:00,27.1,10.5,30.17,North,9,4.9,0.0,49,-99.99,,,-99.99,RaspberryPi,2014-01-27 04:25:00,
2014-01-26 21:31:00,27.1,10.5,30.14,NNW,343,4.6,6.3,49,-99.99,,,-99.99,RaspberryPi,2014-01-27 04:31:00,
2014-01-26 21:36:00,27.1,10.5,30.10,NW,316,4.6,6.3,49,-99.99,,,-99.99,RaspberryPi,2014-01-27 04:36:00,
2014-01-26 21:41:00,27.1,10.5,30.14,WNW,300,3.6,0.0,49,-99.99,,,-99.99,RaspberryPi,2014-01-27 04:41:00,
2014-01-26 21:46:00,27.1,10.5,30.14,North,350,3.5,5.0,49,-99.99,,,-99.99,RaspberryPi,2014-01-27 04:46:00,
2014-01-26 21:52:00,27.1,10.5,30.14,NW,312,3.7,0.0,49,-99.99,,,-99.99,RaspberryPi,2014-01-27 04:52:00,
2014-01-26 21:57:00,27.1,10.5,30.14,WNW,292,3.8,5.6,49,-99.99,,,-99.99,RaspberryPi,2014-01-27 04:57:00,
2014-01-26 22:02:00,27.1,10.5,30.17,North,0,4.0,0.0,49,-99.99,,,-99.99,RaspberryPi,2014-01-27 05:02:00,
2014-01-26 22:04:00,27.1,10.5,30.17,NW,308,2.9,0.0,49,-99.99,,,-99.99,RaspberryPi,2014-01-27 05:04:00,
2014-01-26 22:06:00,27.1,10.5,30.17,North,1,3.1,0.0,49,-99.99,,,-99.99,RaspberryPi,2014-01-27 05:06:00,
2014-01-26 22:11:00,27.1,10.5,30.17,WNW,293,2.6,0.0,49,-99.99,,,-99.99,RaspberryPi,2014-01-27 05:11:00,
2014-01-26 22:14:00,27.1,10.5,30.14,NNW,347,3.4,0.0,49,-99.99,,,-99.99,RaspberryPi,2014-01-27 05:14:00,
2014-01-26 22:20:00,27.1,10.5,30.17,NW,305,2.0,0.0,49,-99.99,,,-99.99,RaspberryPi,2014-01-27 05:20:00,
2014-01-26 22:25:00,27.1,10.5,30.17,North,2,3.3,0.0,49,-99.99,,,-99.99,RaspberryPi,2014-01-27 05:25:00,
2014-01-26 22:30:00,27.1,10.5,30.20,North,4,3.2,4.6,49,-99.99,,,-99.99,RaspberryPi,2014-01-27 05:30:00,
2014-01-26 22:36:00,27.1,10.5,30.14,NW,317,2.3,3.6,49,-99.99,,,-99.99,RaspberryPi,2014-01-27 05:36:00,
2014-01-26 22:41:00,27.1,10.5,30.17,NNE,16,4.2,6.3,49,-99.99,,,-99.99,RaspberryPi,2014-01-27 05:41:00,
2014-01-26 22:46:00,27.1,10.5,30.14,WNW,284,2.8,4.3,49,-99.99,,,-99.99,RaspberryPi,2014-01-27 05:46:00,
2014-01-26 22:51:00,27.1,10.5,30.20,WNW,296,3.3,0.0,49,-99.99,,,-99.99,RaspberryPi,2014-01-27 05:51:00,
2014-01-26 22:57:00,27.1,10.5,30.14,West,276,3.8,5.3,49,-99.99,,,-99.99,RaspberryPi,2014-01-27 05:57:00,
2014-01-26 23:02:00,27.1,10.5,30.14,NW,308,2.0,0.0,49,-99.99,,,-99.99,RaspberryPi,2014-01-27 06:02:00,
2014-01-26 23:07:00,27.1,10.5,30.14,NNW,346,3.2,0.0,49,-99.99,,,-99.99,RaspberryPi,2014-01-27 06:07:00,
2014-01-26 23:12:00,27.1,10.5,30.20,NNW,348,2.1,4.0,49,-99.99,,,-99.99,RaspberryPi,2014-01-27 06:12:00,
2014-01-26 23:18:00,27.1,10.5,30.14,NNW,341,1.9,0.0,49,-99.99,,,-99.99,RaspberryPi,2014-01-27 06:18:00,
2014-01-26 23:23:00,27.1,10.5,30.14,WNW,285,2.0,0.0,49,-99.99,,,-99.99,RaspberryPi,2014-01-27 06:23:00,
2014-01-26 23:28:00,27.1,10.0,30.14,North,10,1.9,3.3,48,-99.99,,,-99.99,RaspberryPi,2014-01-27 06:28:00,
2014-01-26 23:33:00,27.1,10.0,30.14,WNW,301,2.5,0.0,48,-99.99,,,-99.99,RaspberryPi,2014-01-27 06:33:00,
2014-01-26 23:39:00,27.1,10.0,30.14,North,353,1.7,0.0,48,-99.99,,,-99.99,RaspberryPi,2014-01-27 06:39:00,
2014-01-26 23:44:00,27.1,10.0,30.14,North,353,2.9,0.0,48,-99.99,,,-99.99,RaspberryPi,2014-01-27 06:44:00,
2014-01-26 23:49:00,27.1,10.0,30.20,North,354,2.1,0.0,48,-99.99,,,-99.99,RaspberryPi,2014-01-27 06:49:00,
2014-01-26 23:54:00,27.1,10.5,30.14,NW,313,0.7,0.0,49,-99.99,,,-99.99,RaspberryPi,2014-01-27 06:54:00,